Time,TemperatureF,DewpointF,PressureIn,WindDirection,WindDirectionDegrees,WindSpeedMPH,WindSpeedGustMPH,Humidity,HourlyPrecipIn,Conditions,Clouds,dailyrainin,SoftwareType,DateUTC
2013-07-03 00:02:00,71.5,66.1,30.00,WNW,286,0.0,5.0,83,0.00,,,0.00,Wunderground v.1.15,2013-07-03 05:02:00,
2013-07-03 00:07:00,71.2,65.8,30.00,WNW,287,0.0,1.0,83,0.00,,,0.00,Wunderground v.1.15,2013-07-03 05:07:00,
2013-07-03 00:08:00,71.1,65.7,30.00,WNW,287,0.0,1.0,83,0.00,,,0.00,Wunderground v.1.15,2013-07-03 05:08:00,
2013-07-03 00:13:00,70.9,65.8,30.00,WNW,287,0.0,1.0,84,0.00,,,0.00,Wunderground v.1.15,2013-07-03 05:13:00,
2013-07-03 00:19:00,70.8,65.7,30.00,WNW,287,0.0,1.0,84,0.00,,,0.00,Wunderground v.1.15,2013-07-03 05:19:00,
2013-07-03 00:20:00,70.8,65.7,30.00,WNW,287,0.0,1.0,84,0.00,,,0.00,Wunderground v.1.15,2013-07-03 05:20:00,
2013-07-03 00:25:00,70.8,65.7,30.00,WNW,287,0.0,1.0,84,0.00,,,0.00,Wunderground v.1.15,2013-07-03 05:25:00,
2013-07-03 00:30:00,70.8,65.7,30.00,WNW,287,0.0,1.0,84,0.00,,,0.00,Wunderground v.1.15,2013-07-03 05:30:00,
2013-07-03 00:36:00,70.6,65.9,30.00,WNW,285,0.0,1.0,85,0.00,,,0.00,Wunderground v.1.15,2013-07-03 05:36:00,
2013-07-03 00:43:00,70.7,65.6,30.01,WNW,285,0.0,1.0,84,0.00,,,0.00,Wunderground v.1.15,2013-07-03 05:43:00,
2013-07-03 00:48:00,70.8,65.7,30.00,WNW,285,0.0,1.0,84,0.00,,,0.00,Wunderground v.1.15,2013-07-03 05:48:00,
2013-07-03 00:53:00,70.9,65.8,30.00,WNW,285,1.0,1.0,84,0.00,,,0.00,Wunderground v.1.15,2013-07-03 05:53:00,
2013-07-03 00:54:00,70.9,65.8,30.00,WNW,285,1.0,1.0,84,0.00,,,0.00,Wunderground v.1.15,2013-07-03 05:54:00,
2013-07-03 00:59:00,70.9,65.8,30.00,WNW,285,0.0,1.0,84,0.00,,,0.00,Wunderground v.1.15,2013-07-03 05:59:00,
2013-07-03 01:04:00,70.9,66.2,30.00,WNW,285,0.0,1.0,85,0.00,,,0.00,Wunderground v.1.15,2013-07-03 06:04:00,
2013-07-03 01:05:00,70.9,66.2,30.00,WNW,285,0.0,1.0,85,0.00,,,0.00,Wunderground v.1.15,2013-07-03 06:05:00,
2013-07-03 01:11:00,70.7,66.0,30.00,WNW,285,0.0,1.0,85,0.00,,,0.00,Wunderground v.1.15,2013-07-03 06:11:00,
2013-07-03 01:16:00,70.5,65.8,30.00,WNW,285,0.0,1.0,85,0.00,,,0.00,Wunderground v.1.15,2013-07-03 06:16:00,
2013-07-03 01:22:00,70.2,66.1,30.00,WNW,285,0.0,1.0,87,0.00,,,0.00,Wunderground v.1.15,2013-07-03 06:22:00,
2013-07-03 01:24:00,70.2,66.1,30.00,WNW,285,0.0,1.0,87,0.00,,,0.00,Wunderground v.1.15,2013-07-03 06:24:00,
2013-07-03 01:28:00,70.2,66.1,30.00,WNW,287,1.0,1.0,87,0.00,,,0.00,Wunderground v.1.15,2013-07-03 06:28:00,
2013-07-03 01:35:00,70.0,66.0,30.00,WNW,287,0.0,1.0,87,0.00,,,0.00,Wunderground v.1.15,2013-07-03 06:35:00,
2013-07-03 01:39:00,69.8,65.8,30.00,WNW,287,0.0,1.0,87,0.00,,,0.00,Wunderground v.1.15,2013-07-03 06:39:00,
2013-07-03 01:44:00,69.7,66.0,30.00,WNW,287,0.0,1.0,88,0.00,,,0.00,Wunderground v.1.15,2013-07-03 06:44:00,
2013-07-03 01:49:00,69.5,65.8,30.01,WNW,287,0.0,1.0,88,0.00,,,0.00,Wunderground v.1.15,2013-07-03 06:49:00,
2013-07-03 01:50:00,69.4,65.7,30.01,WNW,287,0.0,1.0,88,0.00,,,0.00,Wunderground v.1.15,2013-07-03 06:50:00,
2013-07-03 01:56:00,69.2,65.8,30.00,WNW,287,0.0,1.0,89,0.00,,,0.00,Wunderground v.1.15,2013-07-03 06:56:00,
2013-07-03 02:02:00,69.1,65.7,30.00,WNW,287,0.0,1.0,89,0.00,,,0.00,Wunderground v.1.15,2013-07-03 07:02:00,
2013-07-03 02:07:00,69.0,65.9,30.00,WNW,287,0.0,1.0,90,0.00,,,0.00,Wunderground v.1.15,2013-07-03 07:07:00,
2013-07-03 02:12:00,68.9,65.8,30.00,WNW,287,0.0,1.0,90,0.00,,,0.00,Wunderground v.1.15,2013-07-03 07:12:00,
2013-07-03 02:15:00,68.8,65.7,30.00,WNW,287,0.0,1.0,90,0.00,,,0.00,Wunderground v.1.15,2013-07-03 07:15:00,
2013-07-03 02:20:00,68.7,65.6,30.00,WNW,287,0.0,1.0,90,0.00,,,0.00,Wunderground v.1.15,2013-07-03 07:20:00,
2013-07-03 02:25:00,68.4,65.4,30.00,WNW,287,0.0,1.0,90,0.00,,,0.00,Wunderground v.1.15,2013-07-03 07:25:00,
2013-07-03 02:32:00,68.2,65.5,30.00,WNW,287,0.0,1.0,91,0.00,,,0.00,Wunderground v.1.15,2013-07-03 07:32:00,
2013-07-03 02:37:00,68.1,65.4,30.00,WNW,287,0.0,1.0,91,0.00,,,0.00,Wunderground v.1.15,2013-07-03 07:37:00,
2013-07-03 02:43:00,68.1,65.7,30.00,WNW,287,0.0,1.0,92,0.00,,,0.00,Wunderground v.1.15,2013-07-03 07:43:00,
2013-07-03 02:48:00,68.2,65.8,30.00,WNW,287,0.0,1.0,92,0.00,,,0.00,Wunderground v.1.15,2013-07-03 07:48:00,
2013-07-03 02:54:00,68.3,65.6,30.00,WNW,287,0.0,1.0,91,0.00,,,0.00,Wunderground v.1.15,2013-07-03 07:54:00,
2013-07-03 02:55:00,68.3,65.6,30.00,WNW,287,0.0,1.0,91,0.00,,,0.00,Wunderground v.1.15,2013-07-03 07:55:00,
2013-07-03 03:01:00,68.1,65.4,30.00,WNW,287,0.0,1.0,91,0.00,,,0.00,Wunderground v.1.15,2013-07-03 08:01:00,
2013-07-03 03:04:00,68.0,65.3,29.99,WNW,287,0.0,1.0,91,0.00,,,0.00,Wunderground v.1.15,2013-07-03 08:04:00,
2013-07-03 03:09:00,68.1,65.7,29.99,WNW,287,1.0,1.0,92,0.00,,,0.00,Wunderground v.1.15,2013-07-03 08:09:00,
2013-07-03 03:10:00,68.1,65.7,29.99,WNW,287,1.0,1.0,92,0.00,,,0.00,Wunderground v.1.15,2013-07-03 08:10:00,
2013-07-03 03:15:00,68.1,65.7,29.99,WNW,287,0.0,1.0,92,0.00,,,0.00,Wunderground v.1.15,2013-07-03 08:15:00,
2013-07-03 03:16:00,68.1,65.7,30.00,WNW,287,0.0,1.0,92,0.00,,,0.00,Wunderground v.1.15,2013-07-03 08:16:00,
2013-07-03 03:20:00,68.0,65.6,29.99,WNW,287,0.0,1.0,92,0.00,,,0.00,Wunderground v.1.15,2013-07-03 08:20:00,
2013-07-03 03:25:00,67.8,65.4,30.00,WNW,287,0.0,1.0,92,0.00,,,0.00,Wunderground v.1.15,2013-07-03 08:25:00,
2013-07-03 03:30:00,67.6,65.2,30.00,WNW,287,0.0,1.0,92,0.00,,,0.00,Wunderground v.1.15,2013-07-03 08:30:00,
2013-07-03 03:36:00,67.3,64.9,30.00,WNW,287,0.0,1.0,92,0.00,,,0.00,Wunderground v.1.15,2013-07-03 08:36:00,
2013-07-03 03:39:00,67.2,64.8,29.99,WNW,287,0.0,1.0,92,0.00,,,0.00,Wunderground v.1.15,2013-07-03 08:39:00,
2013-07-03 03:44:00,67.1,64.7,30.00,WNW,287,0.0,1.0,92,0.00,,,0.00,Wunderground v.1.15,2013-07-03 08:44:00,
2013-07-03 03:47:00,67.0,64.6,29.99,WNW,287,0.0,1.0,92,0.00,,,0.00,Wunderground v.1.15,2013-07-03 08:47:00,
2013-07-03 03:53:00,67.1,65.0,29.99,WNW,287,0.0,1.0,93,0.00,,,0.00,Wunderground v.1.15,2013-07-03 08:53:00,
2013-07-03 03:55:00,67.1,65.0,30.00,WNW,287,0.0,1.0,93,0.00,,,0.00,Wunderground v.1.15,2013-07-03 08:55:00,
2013-07-03 03:58:00,67.0,64.9,30.00,WNW,287,0.0,1.0,93,0.00,,,0.00,Wunderground v.1.15,2013-07-03 08:58:00,
2013-07-03 04:03:00,66.9,64.8,30.00,WNW,287,0.0,1.0,93,0.00,,,0.00,Wunderground v.1.15,2013-07-03 09:03:00,
2013-07-03 04:08:00,66.9,64.8,30.00,WNW,287,0.0,1.0,93,0.00,,,0.00,Wunderground v.1.15,2013-07-03 09:08:00,
2013-07-03 04:14:00,66.9,64.8,30.00,WNW,287,0.0,1.0,93,0.00,,,0.00,Wunderground v.1.15,2013-07-03 09:14:00,
2013-07-03 04:19:00,66.9,64.8,30.00,WNW,287,0.0,1.0,93,0.00,,,0.00,Wunderground v.1.15,2013-07-03 09:19:00,
2013-07-03 04:25:00,66.8,64.7,30.00,WNW,290,0.0,1.0,93,0.00,,,0.00,Wunderground v.1.15,2013-07-03 09:25:00,
2013-07-03 04:31:00,66.9,64.8,30.00,WNW,291,1.0,1.0,93,0.00,,,0.00,Wunderground v.1.15,2013-07-03 09:31:00,
2013-07-03 04:36:00,66.9,64.8,30.00,WNW,290,1.0,1.0,93,0.00,,,0.00,Wunderground v.1.15,2013-07-03 09:36:00,
2013-07-03 04:42:00,66.9,64.8,30.00,WNW,290,0.0,1.0,93,0.00,,,0.00,Wunderground v.1.15,2013-07-03 09:42:00,
2013-07-03 04:48:00,66.7,64.6,30.00,WNW,290,0.0,1.0,93,0.00,,,0.00,Wunderground v.1.15,2013-07-03 09:48:00,
2013-07-03 04:50:00,66.6,64.5,29.99,WNW,291,0.0,1.0,93,0.00,,,0.00,Wunderground v.1.15,2013-07-03 09:50:00,
2013-07-03 04:55:00,66.4,64.3,30.00,WNW,290,0.0,1.0,93,0.00,,,0.00,Wunderground v.1.15,2013-07-03 09:55:00,
2013-07-03 05:01:00,66.4,64.6,29.99,WNW,290,0.0,1.0,94,0.00,,,0.00,Wunderground v.1.15,2013-07-03 10:01:00,
2013-07-03 05:05:00,66.5,64.7,29.99,WNW,291,0.0,1.0,94,0.00,,,0.00,Wunderground v.1.15,2013-07-03 10:05:00,
2013-07-03 05:11:00,66.4,64.6,30.00,WNW,291,1.0,1.0,94,0.00,,,0.00,Wunderground v.1.15,2013-07-03 10:11:00,
2013-07-03 05:14:00,66.4,64.6,29.99,WNW,290,1.0,1.0,94,0.00,,,0.00,Wunderground v.1.15,2013-07-03 10:14:00,
2013-07-03 05:20:00,66.4,64.6,29.99,WNW,291,0.0,1.0,94,0.00,,,0.00,Wunderground v.1.15,2013-07-03 10:20:00,
2013-07-03 05:25:00,66.4,64.6,29.99,WNW,291,0.0,1.0,94,0.00,,,0.00,Wunderground v.1.15,2013-07-03 10:25:00,
2013-07-03 05:30:00,66.3,64.5,30.00,WNW,291,0.0,1.0,94,0.00,,,0.00,Wunderground v.1.15,2013-07-03 10:30:00,
2013-07-03 05:31:00,66.3,64.5,30.00,WNW,290,0.0,1.0,94,0.00,,,0.00,Wunderground v.1.15,2013-07-03 10:31:00,
2013-07-03 05:36:00,66.1,64.3,30.00,SSW,212,0.0,1.0,94,0.00,,,0.00,Wunderground v.1.15,2013-07-03 10:36:00,
2013-07-03 05:43:00,66.0,64.2,30.00,SSW,212,0.0,1.0,94,0.00,,,0.00,Wunderground v.1.15,2013-07-03 10:43:00,
2013-07-03 05:48:00,66.0,64.2,30.00,SSW,212,0.0,1.0,94,0.00,,,0.00,Wunderground v.1.15,2013-07-03 10:48:00,
2013-07-03 05:50:00,66.0,64.2,30.00,SSW,212,0.0,1.0,94,0.00,,,0.00,Wunderground v.1.15,2013-07-03 10:50:00,
2013-07-03 05:56:00,66.0,64.2,30.00,SSW,212,0.0,1.0,94,0.00,,,0.00,Wunderground v.1.15,2013-07-03 10:56:00,
2013-07-03 06:00:00,66.0,64.2,30.00,SSW,212,0.0,1.0,94,0.00,,,0.00,Wunderground v.1.15,2013-07-03 11:00:00,
2013-07-03 06:06:00,65.8,64.0,30.01,SSW,212,0.0,1.0,94,0.00,,,0.00,Wunderground v.1.15,2013-07-03 11:06:00,
2013-07-03 06:11:00,65.8,64.0,30.01,SSW,212,0.0,1.0,94,0.00,,,0.00,Wunderground v.1.15,2013-07-03 11:11:00,
2013-07-03 06:13:00,65.8,64.0,30.01,SSW,212,0.0,1.0,94,0.00,,,0.00,Wunderground v.1.15,2013-07-03 11:13:00,
2013-07-03 06:18:00,65.6,63.8,30.01,SSW,212,0.0,1.0,94,0.00,,,0.00,Wunderground v.1.15,2013-07-03 11:18:00,
2013-07-03 06:21:00,65.5,63.7,30.01,SSW,212,0.0,1.0,94,0.00,,,0.00,Wunderground v.1.15,2013-07-03 11:21:00,
2013-07-03 06:25:00,65.6,64.1,30.01,SSW,212,0.0,1.0,95,0.00,,,0.00,Wunderground v.1.15,2013-07-03 11:25:00,
2013-07-03 06:26:00,65.6,64.1,30.01,SSW,212,0.0,1.0,95,0.00,,,0.00,Wunderground v.1.15,2013-07-03 11:26:00,
2013-07-03 06:31:00,65.8,64.0,30.01,SSW,212,0.0,1.0,94,0.00,,,0.00,Wunderground v.1.15,2013-07-03 11:31:00,
2013-07-03 06:36:00,65.9,64.1,30.01,SSW,212,0.0,1.0,94,0.00,,,0.00,Wunderground v.1.15,2013-07-03 11:36:00,
2013-07-03 06:42:00,65.9,64.1,30.01,SSW,212,0.0,1.0,94,0.00,,,0.00,Wunderground v.1.15,2013-07-03 11:42:00,
2013-07-03 06:45:00,66.1,64.6,30.01,SSW,212,0.0,1.0,95,0.00,,,0.00,Wunderground v.1.15,2013-07-03 11:45:00,
2013-07-03 06:51:00,66.4,64.6,30.01,SSW,212,0.0,1.0,94,0.00,,,0.00,Wunderground v.1.15,2013-07-03 11:51:00,
2013-07-03 06:56:00,66.6,64.8,30.01,SW,214,0.0,1.0,94,0.00,,,0.00,Wunderground v.1.15,2013-07-03 11:56:00,
2013-07-03 07:02:00,66.8,65.0,30.01,SW,220,0.0,1.0,94,0.00,,,0.00,Wunderground v.1.15,2013-07-03 12:02:00,
2013-07-03 07:03:00,66.9,65.1,30.01,SW,219,0.0,1.0,94,0.00,,,0.00,Wunderground v.1.15,2013-07-03 12:03:00,
2013-07-03 07:09:00,67.4,65.6,30.01,SW,219,0.0,1.0,94,0.00,,,0.00,Wunderground v.1.15,2013-07-03 12:09:00,
2013-07-03 07:12:00,67.8,66.0,30.01,SW,219,0.0,1.0,94,0.00,,,0.00,Wunderground v.1.15,2013-07-03 12:12:00,
2013-07-03 07:16:00,68.6,66.8,30.01,SW,219,0.0,1.0,94,0.00,,,0.00,Wunderground v.1.15,2013-07-03 12:16:00,
2013-07-03 07:21:00,69.6,67.5,30.01,SW,219,0.0,1.0,93,0.00,,,0.00,Wunderground v.1.15,2013-07-03 12:21:00,
2013-07-03 07:27:00,69.9,67.2,30.02,SW,219,0.0,1.0,91,0.00,,,0.00,Wunderground v.1.15,2013-07-03 12:27:00,
2013-07-03 07:32:00,70.3,67.2,30.02,SW,231,0.0,1.0,90,0.00,,,0.00,Wunderground v.1.15,2013-07-03 12:32:00,
2013-07-03 07:37:00,70.9,67.5,30.02,SW,221,0.0,1.0,89,0.00,,,0.00,Wunderground v.1.15,2013-07-03 12:37:00,
2013-07-03 07:43:00,72.1,68.3,30.02,East,101,0.0,2.0,88,0.00,,,0.00,Wunderground v.1.15,2013-07-03 12:43:00,
2013-07-03 07:48:00,73.3,68.5,30.02,East,101,0.0,1.0,85,0.00,,,0.00,Wunderground v.1.15,2013-07-03 12:48:00,
2013-07-03 07:53:00,74.0,67.8,30.03,ENE,72,0.0,1.0,81,0.00,,,0.00,Wunderground v.1.15,2013-07-03 12:53:00,
2013-07-03 07:58:00,74.4,67.5,30.03,NE,46,1.0,2.0,79,0.00,,,0.00,Wunderground v.1.15,2013-07-03 12:58:00,
2013-07-03 08:04:00,74.6,66.9,30.03,ENE,77,1.0,3.0,77,0.00,,,0.00,Wunderground v.1.15,2013-07-03 13:04:00,
2013-07-03 08:10:00,75.1,67.4,30.03,ENE,68,1.0,2.0,77,0.00,,,0.00,Wunderground v.1.15,2013-07-03 13:10:00,
2013-07-03 08:15:00,75.3,67.2,30.03,ESE,107,2.0,2.0,76,0.00,,,0.00,Wunderground v.1.15,2013-07-03 13:15:00,
2013-07-03 08:20:00,75.3,66.8,30.03,ENE,74,2.0,4.0,75,0.00,,,0.00,Wunderground v.1.15,2013-07-03 13:20:00,
2013-07-03 08:25:00,75.3,67.2,30.03,ENE,69,3.0,3.0,76,0.00,,,0.00,Wunderground v.1.15,2013-07-03 13:25:00,
2013-07-03 08:27:00,75.3,66.4,30.03,NE,47,3.0,4.0,74,0.00,,,0.00,Wunderground v.1.15,2013-07-03 13:27:00,
2013-07-03 08:33:00,75.5,66.6,30.03,ENE,71,4.0,6.0,74,0.00,,,0.00,Wunderground v.1.15,2013-07-03 13:33:00,
2013-07-03 08:37:00,75.9,67.0,30.03,NE,44,3.0,4.0,74,0.00,,,0.00,Wunderground v.1.15,2013-07-03 13:37:00,
2013-07-03 08:42:00,76.4,67.1,30.03,ENE,67,3.0,6.0,73,0.00,,,0.00,Wunderground v.1.15,2013-07-03 13:42:00,
2013-07-03 08:49:00,76.7,67.0,30.03,East,84,3.0,5.0,72,0.00,,,0.00,Wunderground v.1.15,2013-07-03 13:49:00,
2013-07-03 08:54:00,76.9,67.2,30.04,East,79,4.0,9.0,72,0.00,,,0.00,Wunderground v.1.15,2013-07-03 13:54:00,
2013-07-03 09:00:00,77.7,67.5,30.04,ENE,67,3.0,7.0,71,0.00,,,0.00,Wunderground v.1.15,2013-07-03 14:00:00,
2013-07-03 09:07:00,78.0,67.8,30.04,East,93,3.0,6.0,71,0.00,,,0.00,Wunderground v.1.15,2013-07-03 14:07:00,
2013-07-03 09:10:00,78.0,67.4,30.04,ESE,115,3.0,6.0,70,0.00,,,0.00,Wunderground v.1.15,2013-07-03 14:10:00,
2013-07-03 09:12:00,78.3,67.7,30.04,ESE,107,3.0,6.0,70,0.00,,,0.00,Wunderground v.1.15,2013-07-03 14:12:00,
2013-07-03 09:18:00,78.8,68.6,30.04,ENE,77,3.0,7.0,71,0.00,,,0.00,Wunderground v.1.15,2013-07-03 14:18:00,
2013-07-03 09:19:00,78.8,67.8,30.04,ESE,103,3.0,7.0,69,0.00,,,0.00,Wunderground v.1.15,2013-07-03 14:19:00,
2013-07-03 09:25:00,79.1,67.6,30.04,ENE,77,4.0,5.0,68,0.00,,,0.00,Wunderground v.1.15,2013-07-03 14:25:00,
2013-07-03 09:30:00,79.4,68.3,30.05,ESE,120,3.0,5.0,69,0.00,,,0.00,Wunderground v.1.15,2013-07-03 14:30:00,
2013-07-03 09:34:00,79.8,67.4,30.05,East,81,3.0,5.0,66,0.00,,,0.00,Wunderground v.1.15,2013-07-03 14:34:00,
2013-07-03 09:39:00,79.9,67.5,30.05,ENE,77,3.0,6.0,66,0.00,,,0.00,Wunderground v.1.15,2013-07-03 14:39:00,
2013-07-03 09:45:00,80.3,67.5,30.05,ENE,64,3.0,4.0,65,0.00,,,0.00,Wunderground v.1.15,2013-07-03 14:45:00,
2013-07-03 09:46:00,80.3,67.9,30.05,SE,132,4.0,4.0,66,0.00,,,0.00,Wunderground v.1.15,2013-07-03 14:46:00,
2013-07-03 09:51:00,80.6,68.6,30.04,East,96,3.0,4.0,67,0.00,,,0.00,Wunderground v.1.15,2013-07-03 14:51:00,
2013-07-03 09:56:00,81.0,68.6,30.05,ENE,71,3.0,3.0,66,0.00,,,0.00,Wunderground v.1.15,2013-07-03 14:56:00,
2013-07-03 09:57:00,81.1,68.2,30.04,NE,56,3.0,3.0,65,0.00,,,0.00,Wunderground v.1.15,2013-07-03 14:57:00,
2013-07-03 10:02:00,81.5,68.6,30.05,NE,53,3.0,3.0,65,0.00,,,0.00,Wunderground v.1.15,2013-07-03 15:02:00,
2013-07-03 10:07:00,81.7,68.3,30.05,NNE,25,3.0,4.0,64,0.00,,,0.00,Wunderground v.1.15,2013-07-03 15:07:00,
2013-07-03 10:10:00,81.7,67.9,30.05,North,354,3.0,4.0,63,0.00,,,0.00,Wunderground v.1.15,2013-07-03 15:10:00,
2013-07-03 10:15:00,82.1,68.7,30.05,East,81,3.0,3.0,64,0.00,,,0.00,Wunderground v.1.15,2013-07-03 15:15:00,
2013-07-03 10:20:00,82.4,68.5,30.04,ENE,77,3.0,7.0,63,0.00,,,0.00,Wunderground v.1.15,2013-07-03 15:20:00,
2013-07-03 10:25:00,82.4,68.1,30.05,ENE,68,3.0,5.0,62,0.00,,,0.00,Wunderground v.1.15,2013-07-03 15:25:00,
2013-07-03 10:31:00,82.4,67.6,30.04,ESE,120,3.0,7.0,61,0.00,,,0.00,Wunderground v.1.15,2013-07-03 15:31:00,
2013-07-03 10:32:00,82.4,68.1,30.04,East,90,3.0,7.0,62,0.00,,,0.00,Wunderground v.1.15,2013-07-03 15:32:00,
2013-07-03 10:37:00,82.8,67.5,30.04,ENE,71,3.0,4.0,60,0.00,,,0.00,Wunderground v.1.15,2013-07-03 15:37:00,
2013-07-03 10:41:00,83.1,67.3,30.04,ESE,121,3.0,7.0,59,0.00,,,0.00,Wunderground v.1.15,2013-07-03 15:41:00,
2013-07-03 10:46:00,83.1,66.8,30.04,East,81,4.0,6.0,58,0.00,,,0.00,Wunderground v.1.15,2013-07-03 15:46:00,
2013-07-03 10:52:00,83.2,66.9,30.04,ESE,109,4.0,8.0,58,0.00,,,0.00,Wunderground v.1.15,2013-07-03 15:52:00,
2013-07-03 10:53:00,83.2,65.9,30.04,East,98,4.0,8.0,56,0.00,,,0.00,Wunderground v.1.15,2013-07-03 15:53:00,
2013-07-03 10:54:00,83.2,66.9,30.04,NNW,328,4.0,8.0,58,0.00,,,0.00,Wunderground v.1.15,2013-07-03 15:54:00,
2013-07-03 10:58:00,83.7,66.3,30.04,ESE,123,4.0,4.0,56,0.00,,,0.00,Wunderground v.1.15,2013-07-03 15:58:00,
2013-07-03 11:05:00,83.7,65.8,30.04,East,89,4.0,6.0,55,0.00,,,0.00,Wunderground v.1.15,2013-07-03 16:05:00,
2013-07-03 11:11:00,84.2,66.3,30.04,NE,56,4.0,6.0,55,0.00,,,0.00,Wunderground v.1.15,2013-07-03 16:11:00,
2013-07-03 11:16:00,84.7,66.7,30.03,ENE,71,3.0,4.0,55,0.00,,,0.00,Wunderground v.1.15,2013-07-03 16:16:00,
2013-07-03 11:22:00,85.2,68.2,30.03,ENE,68,3.0,5.0,57,0.00,,,0.00,Wunderground v.1.15,2013-07-03 16:22:00,
2013-07-03 11:27:00,84.8,67.4,30.03,ESE,123,4.0,6.0,56,0.00,,,0.00,Wunderground v.1.15,2013-07-03 16:27:00,
2013-07-03 11:32:00,84.7,67.3,30.03,NNE,31,4.0,6.0,56,0.00,,,0.00,Wunderground v.1.15,2013-07-03 16:32:00,
2013-07-03 11:38:00,85.5,68.5,30.03,ENE,77,3.0,5.0,57,0.00,,,0.00,Wunderground v.1.15,2013-07-03 16:38:00,
2013-07-03 11:43:00,85.2,67.2,30.03,ESE,122,4.0,5.0,55,0.00,,,0.00,Wunderground v.1.15,2013-07-03 16:43:00,
2013-07-03 11:49:00,85.0,68.1,30.03,NNE,23,4.0,6.0,57,0.00,,,0.00,Wunderground v.1.15,2013-07-03 16:49:00,
2013-07-03 11:55:00,85.1,65.5,30.03,ENE,76,4.0,8.0,52,0.00,,,0.00,Wunderground v.1.15,2013-07-03 16:55:00,
2013-07-03 12:00:00,85.0,66.5,30.02,ENE,60,5.0,8.0,54,0.00,,,0.00,Wunderground v.1.15,2013-07-03 17:00:00,
2013-07-03 12:06:00,85.2,66.1,30.02,ENE,68,4.0,11.0,53,0.00,,,0.00,Wunderground v.1.15,2013-07-03 17:06:00,
2013-07-03 12:11:00,85.3,66.8,30.02,East,98,3.0,11.0,54,0.00,,,0.00,Wunderground v.1.15,2013-07-03 17:11:00,
2013-07-03 12:17:00,85.0,66.5,30.02,East,83,4.0,11.0,54,0.00,,,0.00,Wunderground v.1.15,2013-07-03 17:17:00,
2013-07-03 12:24:00,84.9,64.2,30.02,North,10,4.0,11.0,50,0.00,,,0.00,Wunderground v.1.15,2013-07-03 17:24:00,
2013-07-03 12:29:00,85.4,65.2,30.02,ESE,123,4.0,11.0,51,0.00,,,0.00,Wunderground v.1.15,2013-07-03 17:29:00,
2013-07-03 12:36:00,86.7,65.8,30.02,NE,47,3.0,11.0,50,0.00,,,0.00,Wunderground v.1.15,2013-07-03 17:36:00,
2013-07-03 12:41:00,87.4,64.7,30.02,WNW,297,2.0,11.0,47,0.00,,,0.00,Wunderground v.1.15,2013-07-03 17:41:00,
2013-07-03 12:47:00,87.3,65.8,30.02,NE,49,3.0,11.0,49,0.00,,,0.00,Wunderground v.1.15,2013-07-03 17:47:00,
2013-07-03 12:52:00,86.7,65.3,30.02,ENE,71,4.0,11.0,49,0.00,,,0.00,Wunderground v.1.15,2013-07-03 17:52:00,
2013-07-03 12:57:00,87.2,66.9,30.02,East,94,4.0,11.0,51,0.00,,,0.00,Wunderground v.1.15,2013-07-03 17:57:00,
2013-07-03 13:03:00,86.7,65.3,30.01,SE,139,4.0,11.0,49,0.00,,,0.00,Wunderground v.1.15,2013-07-03 18:03:00,
2013-07-03 13:08:00,87.4,67.1,30.01,WNW,288,3.0,11.0,51,0.00,,,0.00,Wunderground v.1.15,2013-07-03 18:08:00,
2013-07-03 13:14:00,88.0,64.0,30.01,East,81,3.0,11.0,45,0.00,,,0.00,Wunderground v.1.15,2013-07-03 18:14:00,
2013-07-03 13:20:00,87.9,63.9,30.01,East,84,3.0,11.0,45,0.00,,,0.00,Wunderground v.1.15,2013-07-03 18:20:00,
2013-07-03 13:26:00,88.2,66.0,30.00,NE,49,3.0,11.0,48,0.00,,,0.00,Wunderground v.1.15,2013-07-03 18:26:00,
2013-07-03 13:31:00,88.6,63.2,30.00,NNE,18,2.0,11.0,43,0.00,,,0.00,Wunderground v.1.15,2013-07-03 18:31:00,
2013-07-03 13:36:00,88.4,64.4,30.00,NE,50,2.0,11.0,45,0.00,,,0.00,Wunderground v.1.15,2013-07-03 18:36:00,
2013-07-03 13:42:00,88.7,62.7,30.00,ENE,58,2.0,11.0,42,0.00,,,0.00,Wunderground v.1.15,2013-07-03 18:42:00,
2013-07-03 13:47:00,88.9,62.2,30.00,SE,136,2.0,11.0,41,0.00,,,0.00,Wunderground v.1.15,2013-07-03 18:47:00,
2013-07-03 13:52:00,88.7,62.7,30.00,East,94,2.0,11.0,42,0.00,,,0.00,Wunderground v.1.15,2013-07-03 18:52:00,
2013-07-03 13:58:00,88.4,63.7,30.00,SE,129,2.0,11.0,44,0.00,,,0.00,Wunderground v.1.15,2013-07-03 18:58:00,
2013-07-03 14:03:00,89.2,66.3,30.00,WNW,301,1.0,11.0,47,0.00,,,0.00,Wunderground v.1.15,2013-07-03 19:03:00,
2013-07-03 14:08:00,88.9,63.5,29.99,ESE,107,2.0,11.0,43,0.00,,,0.00,Wunderground v.1.15,2013-07-03 19:08:00,
2013-07-03 14:13:00,88.6,65.8,29.99,ENE,61,2.0,11.0,47,0.00,,,0.00,Wunderground v.1.15,2013-07-03 19:13:00,
2013-07-03 14:19:00,87.7,65.0,29.99,ENE,76,3.0,11.0,47,0.00,,,0.00,Wunderground v.1.15,2013-07-03 19:19:00,
2013-07-03 14:25:00,87.9,63.9,29.99,East,87,4.0,4.0,45,0.00,,,0.00,Wunderground v.1.15,2013-07-03 19:25:00,
2013-07-03 14:31:00,88.3,65.5,29.99,East,79,2.0,11.0,47,0.00,,,0.00,Wunderground v.1.15,2013-07-03 19:31:00,
2013-07-03 14:36:00,88.4,65.0,29.98,ESE,104,2.0,3.0,46,0.00,,,0.00,Wunderground v.1.15,2013-07-03 19:36:00,
2013-07-03 14:41:00,88.2,65.4,29.99,ENE,65,4.0,11.0,47,0.00,,,0.00,Wunderground v.1.15,2013-07-03 19:41:00,
2013-07-03 14:47:00,87.9,66.4,29.99,SE,127,4.0,11.0,49,0.00,,,0.00,Wunderground v.1.15,2013-07-03 19:47:00,
2013-07-03 14:52:00,88.0,64.0,29.98,ESE,117,3.0,11.0,45,0.00,,,0.00,Wunderground v.1.15,2013-07-03 19:52:00,
2013-07-03 14:57:00,88.1,64.1,29.98,SE,132,3.0,11.0,45,0.00,,,0.00,Wunderground v.1.15,2013-07-03 19:57:00,
2013-07-03 15:02:00,88.2,65.4,29.98,ENE,77,4.0,11.0,47,0.00,,,0.00,Wunderground v.1.15,2013-07-03 20:02:00,
2013-07-03 15:08:00,88.8,64.1,29.98,NE,44,3.0,11.0,44,0.00,,,0.00,Wunderground v.1.15,2013-07-03 20:08:00,
2013-07-03 15:13:00,88.9,64.8,29.98,ENE,69,3.0,11.0,45,0.00,,,0.00,Wunderground v.1.15,2013-07-03 20:13:00,
2013-07-03 15:19:00,88.4,64.4,29.97,ENE,65,3.0,11.0,45,0.00,,,0.00,Wunderground v.1.15,2013-07-03 20:19:00,
2013-07-03 15:24:00,88.6,66.4,29.97,SE,146,2.0,11.0,48,0.00,,,0.00,Wunderground v.1.15,2013-07-03 20:24:00,
2013-07-03 15:29:00,88.8,64.7,29.97,North,4,2.0,11.0,45,0.00,,,0.00,Wunderground v.1.15,2013-07-03 20:29:00,
2013-07-03 15:36:00,88.8,64.7,29.97,NE,50,2.0,11.0,45,0.00,,,0.00,Wunderground v.1.15,2013-07-03 20:36:00,
2013-07-03 15:41:00,89.5,67.8,29.97,NNW,348,2.0,11.0,49,0.00,,,0.00,Wunderground v.1.15,2013-07-03 20:41:00,
2013-07-03 15:46:00,89.4,64.0,29.97,North,356,2.0,11.0,43,0.00,,,0.00,Wunderground v.1.15,2013-07-03 20:46:00,
2013-07-03 15:52:00,89.4,64.6,29.96,NNE,22,2.0,11.0,44,0.00,,,0.00,Wunderground v.1.15,2013-07-03 20:52:00,
2013-07-03 15:58:00,88.4,66.2,29.96,NW,326,2.0,11.0,48,0.00,,,0.00,Wunderground v.1.15,2013-07-03 20:58:00,
2013-07-03 16:03:00,88.4,65.6,29.96,ENE,71,1.0,11.0,47,0.00,,,0.00,Wunderground v.1.15,2013-07-03 21:03:00,
2013-07-03 16:09:00,88.7,67.1,29.96,NNW,340,2.0,11.0,49,0.00,,,0.00,Wunderground v.1.15,2013-07-03 21:09:00,
2013-07-03 16:14:00,88.4,64.4,29.96,East,85,3.0,11.0,45,0.00,,,0.00,Wunderground v.1.15,2013-07-03 21:14:00,
2013-07-03 16:20:00,88.1,64.7,29.95,ESE,113,3.0,11.0,46,0.00,,,0.00,Wunderground v.1.15,2013-07-03 21:20:00,
2013-07-03 16:25:00,88.3,65.5,29.95,NE,35,2.0,2.0,47,0.00,,,0.00,Wunderground v.1.15,2013-07-03 21:25:00,
2013-07-03 16:30:00,88.9,64.8,29.95,East,98,2.0,11.0,45,0.00,,,0.00,Wunderground v.1.15,2013-07-03 21:30:00,
2013-07-03 16:36:00,88.4,65.0,29.95,ENE,64,3.0,5.0,46,0.00,,,0.00,Wunderground v.1.15,2013-07-03 21:36:00,
2013-07-03 16:41:00,88.3,66.1,29.95,ENE,60,3.0,11.0,48,0.00,,,0.00,Wunderground v.1.15,2013-07-03 21:41:00,
2013-07-03 16:47:00,88.2,63.5,29.94,ENE,67,3.0,11.0,44,0.00,,,0.00,Wunderground v.1.15,2013-07-03 21:47:00,
2013-07-03 16:52:00,88.1,64.7,29.94,ESE,103,3.0,11.0,46,0.00,,,0.00,Wunderground v.1.15,2013-07-03 21:52:00,
2013-07-03 16:58:00,87.6,65.5,29.94,ENE,65,4.0,11.0,48,0.00,,,0.00,Wunderground v.1.15,2013-07-03 21:58:00,
2013-07-03 17:03:00,86.7,64.1,29.94,ENE,68,6.0,11.0,47,0.00,,,0.00,Wunderground v.1.15,2013-07-03 22:03:00,
2013-07-03 17:08:00,86.2,64.2,29.94,ENE,68,5.0,11.0,48,0.00,,,0.00,Wunderground v.1.15,2013-07-03 22:08:00,
2013-07-03 17:14:00,86.4,64.4,29.94,ESE,120,3.0,11.0,48,0.00,,,0.00,Wunderground v.1.15,2013-07-03 22:14:00,
2013-07-03 17:20:00,86.2,65.4,29.94,East,82,3.0,11.0,50,0.00,,,0.00,Wunderground v.1.15,2013-07-03 22:20:00,
2013-07-03 17:26:00,86.1,65.3,29.94,East,79,4.0,11.0,50,0.00,,,0.00,Wunderground v.1.15,2013-07-03 22:26:00,
2013-07-03 17:31:00,85.7,64.9,29.94,East,82,5.0,11.0,50,0.00,,,0.00,Wunderground v.1.15,2013-07-03 22:31:00,
2013-07-03 17:37:00,85.8,64.4,29.94,ESE,117,5.0,11.0,49,0.00,,,0.00,Wunderground v.1.15,2013-07-03 22:37:00,
2013-07-03 17:42:00,85.6,64.2,29.94,NW,318,4.0,11.0,49,0.00,,,0.00,Wunderground v.1.15,2013-07-03 22:42:00,
2013-07-03 17:47:00,85.9,65.7,29.94,ENE,57,3.0,11.0,51,0.00,,,0.00,Wunderground v.1.15,2013-07-03 22:47:00,
2013-07-03 17:53:00,85.9,64.5,29.94,East,79,3.0,11.0,49,0.00,,,0.00,Wunderground v.1.15,2013-07-03 22:53:00,
2013-07-03 17:59:00,86.2,65.9,29.93,SE,135,4.0,11.0,51,0.00,,,0.00,Wunderground v.1.15,2013-07-03 22:59:00,
2013-07-03 18:05:00,86.2,64.2,29.93,ENE,68,4.0,11.0,48,0.00,,,0.00,Wunderground v.1.15,2013-07-03 23:05:00,
2013-07-03 18:11:00,86.1,64.1,29.93,ENE,62,5.0,11.0,48,0.00,,,0.00,Wunderground v.1.15,2013-07-03 23:11:00,
2013-07-03 18:16:00,86.1,64.1,29.93,East,88,5.0,11.0,48,0.00,,,0.00,Wunderground v.1.15,2013-07-03 23:16:00,
2013-07-03 18:21:00,86.1,64.1,29.93,East,84,5.0,11.0,48,0.00,,,0.00,Wunderground v.1.15,2013-07-03 23:21:00,
2013-07-03 18:27:00,86.0,64.6,29.93,East,96,5.0,11.0,49,0.00,,,0.00,Wunderground v.1.15,2013-07-03 23:27:00,
2013-07-03 18:32:00,85.8,64.4,29.93,ENE,67,4.0,11.0,49,0.00,,,0.00,Wunderground v.1.15,2013-07-03 23:32:00,
2013-07-03 18:37:00,85.9,63.9,29.93,ENE,75,3.0,11.0,48,0.00,,,0.00,Wunderground v.1.15,2013-07-03 23:37:00,
2013-07-03 18:43:00,85.9,63.9,29.93,ENE,77,3.0,11.0,48,0.00,,,0.00,Wunderground v.1.15,2013-07-03 23:43:00,
2013-07-03 18:48:00,85.7,63.1,29.93,ENE,78,5.0,11.0,47,0.00,,,0.00,Wunderground v.1.15,2013-07-03 23:48:00,
2013-07-03 18:53:00,85.7,63.8,29.93,ENE,71,5.0,11.0,48,0.00,,,0.00,Wunderground v.1.15,2013-07-03 23:53:00,
2013-07-03 18:58:00,85.6,63.7,29.93,ENE,68,4.0,11.0,48,0.00,,,0.00,Wunderground v.1.15,2013-07-03 23:58:00,
2013-07-03 19:04:00,85.6,64.2,29.93,ENE,73,4.0,11.0,49,0.00,,,0.00,Wunderground v.1.15,2013-07-04 00:04:00,
2013-07-03 19:09:00,85.4,64.1,29.93,ENE,71,3.0,11.0,49,0.00,,,0.00,Wunderground v.1.15,2013-07-04 00:09:00,
2013-07-03 19:15:00,85.4,63.5,29.93,SE,141,3.0,11.0,48,0.00,,,0.00,Wunderground v.1.15,2013-07-04 00:15:00,
2013-07-03 19:21:00,85.1,64.4,29.94,ENE,68,4.0,11.0,50,0.00,,,0.00,Wunderground v.1.15,2013-07-04 00:21:00,
2013-07-03 19:26:00,84.9,63.6,29.94,ENE,70,4.0,11.0,49,0.00,,,0.00,Wunderground v.1.15,2013-07-04 00:26:00,
2013-07-03 19:32:00,84.8,64.1,29.94,ENE,60,4.0,11.0,50,0.00,,,0.00,Wunderground v.1.15,2013-07-04 00:32:00,
2013-07-03 19:37:00,84.6,63.9,29.94,ENE,58,4.0,11.0,50,0.00,,,0.00,Wunderground v.1.15,2013-07-04 00:37:00,
2013-07-03 19:42:00,84.5,64.4,29.94,East,101,4.0,11.0,51,0.00,,,0.00,Wunderground v.1.15,2013-07-04 00:42:00,
2013-07-03 19:48:00,83.9,65.5,29.94,East,93,3.0,11.0,54,0.00,,,0.00,Wunderground v.1.15,2013-07-04 00:48:00,
2013-07-03 19:53:00,83.2,65.4,29.94,ESE,110,1.0,11.0,55,0.00,,,0.00,Wunderground v.1.15,2013-07-04 00:53:00,
2013-07-03 19:58:00,82.8,65.0,29.94,SE,127,1.0,11.0,55,0.00,,,0.00,Wunderground v.1.15,2013-07-04 00:58:00,
2013-07-03 20:03:00,82.6,65.3,29.94,ESE,120,1.0,11.0,56,0.00,,,0.00,Wunderground v.1.15,2013-07-04 01:03:00,
2013-07-03 20:08:00,82.2,65.4,29.94,East,89,1.0,11.0,57,0.00,,,0.00,Wunderground v.1.15,2013-07-04 01:08:00,
2013-07-03 20:14:00,82.0,65.3,29.94,ENE,74,1.0,11.0,57,0.00,,,0.00,Wunderground v.1.15,2013-07-04 01:14:00,
2013-07-03 20:19:00,82.0,64.8,29.94,East,79,2.0,11.0,56,0.00,,,0.00,Wunderground v.1.15,2013-07-04 01:19:00,
2013-07-03 20:27:00,81.6,64.9,29.95,ENE,70,1.0,11.0,57,0.00,,,0.00,Wunderground v.1.15,2013-07-04 01:27:00,
2013-07-03 20:33:00,81.1,64.9,29.95,ENE,71,0.0,11.0,58,0.00,,,0.00,Wunderground v.1.15,2013-07-04 01:33:00,
2013-07-03 20:38:00,80.7,65.5,29.95,ENE,71,0.0,11.0,60,0.00,,,0.00,Wunderground v.1.15,2013-07-04 01:38:00,
2013-07-03 20:44:00,80.2,65.1,29.95,ENE,71,0.0,11.0,60,0.00,,,0.00,Wunderground v.1.15,2013-07-04 01:44:00,
2013-07-03 20:51:00,79.6,65.4,29.95,ENE,71,0.0,11.0,62,0.00,,,0.00,Wunderground v.1.15,2013-07-04 01:51:00,
2013-07-03 20:58:00,79.3,65.6,29.96,East,94,0.0,11.0,63,0.00,,,0.00,Wunderground v.1.15,2013-07-04 01:58:00,
2013-07-03 21:03:00,79.3,65.1,29.96,East,95,0.0,11.0,62,0.00,,,0.00,Wunderground v.1.15,2013-07-04 02:03:00,
2013-07-03 21:08:00,79.3,65.1,29.96,East,84,0.0,11.0,62,0.00,,,0.00,Wunderground v.1.15,2013-07-04 02:08:00,
2013-07-03 21:14:00,79.1,65.0,29.96,SSE,158,1.0,11.0,62,0.00,,,0.00,Wunderground v.1.15,2013-07-04 02:14:00,
2013-07-03 21:19:00,79.0,65.3,29.96,SE,124,0.0,11.0,63,0.00,,,0.00,Wunderground v.1.15,2013-07-04 02:19:00,
2013-07-03 21:25:00,78.7,65.5,29.97,SE,141,0.0,11.0,64,0.00,,,0.00,Wunderground v.1.15,2013-07-04 02:25:00,
2013-07-03 21:31:00,78.5,65.3,29.97,ESE,120,0.0,11.0,64,0.00,,,0.00,Wunderground v.1.15,2013-07-04 02:31:00,
2013-07-03 21:36:00,78.3,65.6,29.97,ESE,110,0.0,11.0,65,0.00,,,0.00,Wunderground v.1.15,2013-07-04 02:36:00,
2013-07-03 21:41:00,77.9,65.6,29.97,ESE,120,1.0,11.0,66,0.00,,,0.00,Wunderground v.1.15,2013-07-04 02:41:00,
2013-07-03 21:46:00,77.8,65.5,29.97,ESE,109,1.0,11.0,66,0.00,,,0.00,Wunderground v.1.15,2013-07-04 02:46:00,
2013-07-03 21:52:00,77.7,65.4,29.98,ESE,112,1.0,11.0,66,0.00,,,0.00,Wunderground v.1.15,2013-07-04 02:52:00,
2013-07-03 21:58:00,77.5,65.2,29.98,East,93,1.0,11.0,66,0.00,,,0.00,Wunderground v.1.15,2013-07-04 02:58:00,
2013-07-03 22:03:00,77.4,65.1,29.98,ESE,108,1.0,11.0,66,0.00,,,0.00,Wunderground v.1.15,2013-07-04 03:03:00,
2013-07-03 22:09:00,77.2,65.4,29.98,ESE,114,1.0,11.0,67,0.00,,,0.00,Wunderground v.1.15,2013-07-04 03:09:00,
2013-07-03 22:15:00,77.1,65.7,29.98,ESE,103,2.0,11.0,68,0.00,,,0.00,Wunderground v.1.15,2013-07-04 03:15:00,
2013-07-03 22:21:00,76.8,65.4,29.98,ESE,113,2.0,11.0,68,0.00,,,0.00,Wunderground v.1.15,2013-07-04 03:21:00,
2013-07-03 22:27:00,76.6,65.7,29.99,ESE,122,1.0,11.0,69,0.00,,,0.00,Wunderground v.1.15,2013-07-04 03:27:00,
2013-07-03 22:34:00,76.5,65.6,29.99,SE,129,1.0,11.0,69,0.00,,,0.00,Wunderground v.1.15,2013-07-04 03:34:00,
2013-07-03 22:40:00,76.3,65.8,29.99,SE,129,0.0,11.0,70,0.00,,,0.00,Wunderground v.1.15,2013-07-04 03:40:00,
2013-07-03 22:45:00,76.1,65.6,29.99,SE,129,0.0,11.0,70,0.00,,,0.00,Wunderground v.1.15,2013-07-04 03:45:00,
2013-07-03 22:50:00,75.9,65.4,29.99,SE,129,0.0,11.0,70,0.00,,,0.00,Wunderground v.1.15,2013-07-04 03:50:00,
2013-07-03 22:56:00,75.5,65.4,29.99,SE,128,0.0,11.0,71,0.00,,,0.00,Wunderground v.1.15,2013-07-04 03:56:00,
2013-07-03 23:01:00,75.1,65.9,29.99,SE,128,0.0,11.0,73,0.00,,,0.00,Wunderground v.1.15,2013-07-04 04:01:00,
2013-07-03 23:02:00,75.0,65.8,29.99,SE,128,0.0,11.0,73,0.00,,,0.00,Wunderground v.1.15,2013-07-04 04:02:00,
2013-07-03 23:06:00,74.6,65.8,29.99,SE,129,0.0,11.0,74,0.00,,,0.00,Wunderground v.1.15,2013-07-04 04:06:00,
2013-07-03 23:08:00,74.4,66.0,29.99,SE,128,0.0,11.0,75,0.00,,,0.00,Wunderground v.1.15,2013-07-04 04:08:00,
2013-07-03 23:11:00,74.1,65.7,29.99,SE,129,0.0,11.0,75,0.00,,,0.00,Wunderground v.1.15,2013-07-04 04:11:00,
2013-07-03 23:17:00,73.7,65.7,29.98,SE,128,0.0,11.0,76,0.00,,,0.00,Wunderground v.1.15,2013-07-04 04:17:00,
2013-07-03 23:22:00,73.4,65.7,29.98,SE,128,0.0,11.0,77,0.00,,,0.00,Wunderground v.1.15,2013-07-04 04:22:00,
2013-07-03 23:27:00,73.2,65.6,29.98,SE,128,0.0,11.0,77,0.00,,,0.00,Wunderground v.1.15,2013-07-04 04:27:00,
2013-07-03 23:32:00,72.9,65.6,29.98,SE,127,0.0,11.0,78,0.00,,,0.00,Wunderground v.1.15,2013-07-04 04:32:00,
2013-07-03 23:38:00,72.7,65.8,29.98,SE,127,0.0,11.0,79,0.00,,,0.00,Wunderground v.1.15,2013-07-04 04:38:00,
2013-07-03 23:43:00,72.7,66.2,29.98,SE,127,0.0,11.0,80,0.00,,,0.00,Wunderground v.1.15,2013-07-04 04:43:00,
2013-07-03 23:48:00,72.8,65.9,29.98,SE,125,0.0,11.0,79,0.00,,,0.00,Wunderground v.1.15,2013-07-04 04:48:00,
2013-07-03 23:53:00,72.7,65.8,29.98,SE,125,0.0,11.0,79,0.00,,,0.00,Wunderground v.1.15,2013-07-04 04:53:00,
2013-07-03 23:59:00,72.4,65.9,29.98,SE,126,0.0,11.0,80,0.00,,,0.00,Wunderground v.1.15,2013-07-04 04:59:00,